sat.trackr.live / text

‹ back to catalog

SOYUZ-MS 28

NORAD 66664 · 2025-275A

PAYLOAD ACTIVE UNKNOWN

§ Identity

Operator
Country
CIS
Launch date
2025-11-27
Launch site
TYMSC
Launch vehicle
Mass (kg)
RCS (m²)

Purposes: station

External: N2YO · Heavens-Above · Gunter

§ Orbital elements

Epoch: 2026-07-25T10:38:14.228736Z

Period
92.95 min
Inclination
51.6316°
Eccentricity
0.0006908
Mean motion
15.49160253 rev/d
Perigee alt
414.5 km
Apogee alt
423.9 km
Semi-major
6,797.3 km
B*
1.6367e-4
RAAN
110.7757°
Arg perigee
336.1751°
Mean anomaly
23.8916°
Rev number
57,675

§ Raw data

SOYUZ-MS 281 66664U 25275A   26206.44322024  .00008631  00000+0  16367-3 0  99992 66664  51.6316 110.7757 0006908 336.1751  23.8916 15.49160253576754

JSON: /api/v1/satellites/66664 · /tle

For live sub-satellite position, see the globe view (requires WebGL).

§ Visibility from observer

Set your observer location to see the next 7 days of passes ≥ 10°. The values pass through the URL so the page stays shareable.

No JS? Fill the form by hand. The geolocation button needs JavaScript.